Regional Weather Roundup
Issued by NWS

Home | Current Version | Previous Version | Graphics & Text | Print | Product List | Glossary On
Versions: 1 2 3 4 5 6 7 8 9 10 11 12 13 14 15 16 17 18 19 20 21 22 23 24 25 26 27 28 29 30 31 32 33 34 35 36 37 38 39 40 41 42 43 44 45 46 47 48 49 50
000
ASUS43 KMPX 201110
RWRMN
WEATHER ROUNDUP FOR MINNESOTA
NATIONAL WEATHER SERVICE TWIN CITIES/CHANHASSEN MN
600 AM CDT SUN MAY 20 2018


NOTE: "FAIR" INDICATES FEW OR NO CLOUDS BELOW 12,000 FEET WITH NO
SIGNIFICANT WEATHER AND/OR OBSTRUCTIONS TO VISIBILITY. N/A MEANS
CURRENT SKY AND/OR WEATHER CONDITIONS ARE NOT AVAILABLE.

MNZ060>063-068>070-201200-
   Twin Cities Metro

CITY           SKY/WX    TMP DP  RH WIND       PRES   REMARKS
TWIN CITIES    MOCLDY    46  37  71 NE13      30.21R
ST PAUL        FAIR      45  35  68 NE13G22   30.22R
CRYSTAL        FAIR      42  36  79 NE6       30.21R
BLAINE         FAIR      43  39  87 NE7       30.21S
LAKEVILLE      FAIR      43  36  75 NE9G17    30.18R
EDEN PRAIRIE   FAIR      46  36  68 NE15G23   30.18R
SOUTH ST PAUL  FAIR      45  35  68 NE7G16    30.20R
LAKE ELMO      FAIR      43  36  75 NE12      30.22R
$$
MNZ001>005-007-008-013>017-022>024-027-028-201200-
   Northwest Minnesota

CITY           SKY/WX    TMP DP  RH WIND       PRES   REMARKS
BEMIDJI        FAIR      30  29  94 CALM      30.26R
HALLOCK        FAIR      37  36  93 SE6       30.22S
ROSEAU         FAIR      39  36  87 SW3       30.23R
WARROAD        FAIR      39  34  81 SW6       30.22S
THIEF RVR FALL FAIR      39  33  79 S3        30.26R
CROOKSTON      FAIR      37  34  87 SE6       30.26R
FOSSTON        FAIR      32  27  80 CALM      30.26R
DETROIT LAKES  FAIR      43  36  75 E5        30.26R
MOORHEAD       FAIR      37  34  87 CALM      30.26R
PARK RAPIDS    FAIR      33  30  88 N3        30.25R
MAHNOMEN       FAIR      38  34  83 CALM      30.25R
$$
MNZ006-009>011-018-025>026-201200-
   North Central Minnesota

CITY           SKY/WX    TMP DP  RH WIND       PRES   REMARKS
BAUDETTE       FAIR      39  33  79 CALM      30.22S
FLAG ISLAND    FAIR      48  34  57 SW14      30.19R
INTL FALLS     FAIR      31  31 100 CALM      30.23R
WASKISH        FAIR      32  30  93 CALM      30.24S
BIG FORK       FAIR      30  28  93 CALM      30.25R
LONGVILLE      FAIR      32  30  93 CALM      30.25R
GRAND RAPIDS   FAIR      32  31  96 CALM      30.27S
CRANE LAKE     FAIR      27  27 100 CALM      30.26R
ORR            FAIR      34  30  86 CALM      30.22S
COOK           FAIR      28  28 100 CALM      30.26R
WALKER         FAIR      30  30  98 CALM      30.25S
$$
MNZ012-019>021-037-201200-
   Northeast Minnesota

CITY           SKY/WX    TMP DP  RH WIND       PRES   REMARKS
DULUTH         FAIR      33  31  92 CALM      30.24S
ELY            FAIR      30  28  93 CALM      30.24S
HIBBING        FAIR      26  25  96 CALM      30.25S
EVELETH        FOG       27  27 100 CALM      30.27R VSB 1/2
DULUTH HARBOR  FAIR      39  37  93 N3        30.27R
TWO HARBORS    FAIR      32  27  80 CALM      30.24S
SILVER BAY     FAIR      28  28 100 CALM      30.25R
GRAND MARAIS     N/A     33  30  88 CALM      30.25S
G MARAIS ARPRT FAIR      34  28  80 W3        30.23S
$$
MNZ029>031-032-039>041-046>048-054>057-064-201200-
   West Central Minnesota

CITY           SKY/WX    TMP DP  RH WIND       PRES   REMARKS
FERGUS FALLS   FAIR      43  36  75 CALM      30.23R
WHEATON        CLOUDY    39  34  81 CALM      30.27R
MORRIS         CLEAR     43  36  75 E5        30.23R
ALEXANDRIA     FAIR      44  37  76 SE7       30.25R
ELBOW LAKE     FAIR      44  37  74 CALM      30.25R
WADENA         FAIR      34  34 100 CALM      30.25R
GLENWOOD       FAIR      39  37  93 NE9       30.24R
APPLETON       PTCLDY    39  34  81 N6        30.23R
BENSON         PTCLDY    39  36  87 NE5       30.25R
ORTONVILLE     CLEAR     39  36  87 NE5       30.23S
MADISON        PTCLDY    43  37  81 N5        30.22R
WILLMAR        FAIR      45  37  76 NE10      30.23S
$$
MNZ033>034-036-042>043-049>051-058-059-201200-
   Central Minnesota

CITY           SKY/WX    TMP DP  RH WIND       PRES   REMARKS
ST CLOUD       FAIR      40  36  86 CALM      30.23S
SAUK CENTRE    FAIR      42  37  85 NE6       30.24S
PAYNESVILLE    FAIR      40  38  94 NE5       30.23S
AITKIN         FOG       28  27  93 CALM      30.25R VSB 1/4
PINE RIVER     FAIR      30  27  86 CALM      30.28R
BRAINERD       FOG       34  31  88 CALM      30.25R VSB 1/4
STAPLES        FAIR      34  34 100 CALM      30.25R
LONG PRAIRIE   FAIR      37  36  93 CALM      30.25R
LITTLE FALLS   FAIR      36  36 100 CALM      30.25R
LITCHFIELD     FAIR      45  41  87 NE7       30.22R
BUFFALO        FAIR      43  37  80 NE9       30.23R
MAPLE LAKE     FAIR      42  39  89 NE5       30.23R
HUTCHINSON     FAIR      46  40  79 NE13      30.20S
$$
MNZ037-044-045-052-053-201200-
   East Central Minnesota

CITY           SKY/WX    TMP DP  RH WIND       PRES   REMARKS
PRINCETON      FAIR      39  37  93 NE3       30.24R
MORA           FAIR      36  32  87 CALM      30.26S
CAMBRIDGE      FAIR      43  36  75 N3        30.23F
RUSH CITY      FAIR      35  33  92 N5        30.24S WCI  31
MOOSE LAKE     FOG       32  32 100 CALM      30.24R VSB 1/4
HINCKLEY       FAIR      34  34 100 CALM      30.25R
CLOQUET        FAIR      30  28  93 CALM      30.25R
MCGREGOR       FAIR      32  32 100 CALM      30.26R
$$
MNZ071>073-080-081-089-090-097-098-201200-
   Southwest Minnesota

CITY           SKY/WX    TMP DP  RH WIND       PRES   REMARKS
MONTEVIDEO     CLOUDY    43  37  81 CALM      30.22R
GRANITE FALLS  CLOUDY    47  41  79 N8        30.23R
CANBY          PTCLDY    46  41  83 N5        30.23S
REDWOOD FALLS  CLOUDY    47  38  71 NE7       30.19R
OLIVIA         CLOUDY    46  39  76 NE12      30.19S
PIPESTONE      LGT RAIN  46  39  76 E15G24    30.15S
WINDOM         MOCLDY    48  28  46 NE10G17   30.16R
WORTHINGTON    CLOUDY    47  42  83 NE12      30.17R
JACKSON        CLOUDY    48  39  71 NE18      30.15R
TRACY          CLOUDY    49  40  69 NE13      30.19R
SLAYTON        CLOUDY    47  40  77 NE12      30.18R
$$
MNZ065>067-074>077-082>085-091>093-201200-
   South Central Minnesota

CITY           SKY/WX    TMP DP  RH WIND       PRES   REMARKS
MANKATO        MOCLDY    48  37  65 NE16      30.17R
NEW ULM        CLOUDY    46  36  66 NE14      30.17R
ST JAMES       CLOUDY    48  37  66 NE13      30.18R
FAIRMONT       CLOUDY    49  40  71 NE12      30.16R
GLENCOE        FAIR      46  39  79 NE7       30.19R
FARIBAULT      FAIR      46  37  71 CALM      30.17R
OWATONNA       CLOUDY    48  37  66 NE13G21   30.15R
WASECA         CLOUDY    46  37  71 NE9G16    30.17R
ALBERT LEA     CLOUDY    48  37  66 NE14      30.12F
$$
MNZ078>079-086>088-094>096-201200-
   Southeast Minnesota

CITY           SKY/WX    TMP DP  RH WIND       PRES   REMARKS
ROCHESTER      CLOUDY    47  41  80 NE12      30.15R
RED WING       CLOUDY    48  32  53 E8        30.18R
STANTON        FAIR      47  36  65 NE10      30.16R
DODGE CENTER   CLOUDY    46  37  71 NE15G21   30.14S
WINONA         CLOUDY    48  41  76 E6        30.14R
AUSTIN         CLOUDY    48  41  76 NE9       30.12R
PRESTON        CLOUDY    47  40  77 NE7       30.14R
$$
ABBREVIATIONS USED IN REMARKS
   TC - TEMPERATURES IN CELSIUS
  WCI - WIND CHILL INDEX
   HX - HEAT INDEX
  VSB - VISIBILITY
$$




USA.gov is the U.S. government's official web portal to all federal, state and local government web resources and services.